sat.trackr.live / text

‹ back to catalog

STARLINK-5880

NORAD 57220 · 2023-094C

PAYLOAD ACTIVE UNKNOWN

§ Identity

Operator
Country
US
Launch date
2023-07-07
Launch site
AFWTR
Launch vehicle
Mass (kg)
RCS (m²)

Purposes: comms

External: N2YO · Heavens-Above · Gunter

§ Orbital elements

Epoch: 2026-05-24T18:44:41.739360Z

Period
94.32 min
Inclination
43.0031°
Eccentricity
0.0001583
Mean motion
15.26742281 rev/d
Perigee alt
484.5 km
Apogee alt
486.6 km
Semi-major
6,863.7 km
B*
3.7385e-5
RAAN
324.3202°
Arg perigee
266.8954°
Mean anomaly
93.1717°
Rev number
15,871

§ Raw data

STARLINK-58801 57220U 23094C   26144.78103865  .00000743  00000+0  37385-4 0  99922 57220  43.0031 324.3202 0001583 266.8954  93.1717 15.26742281158710

JSON: /api/v1/satellites/57220 · /tle

For live sub-satellite position, see the globe view (requires WebGL).

§ Visibility from observer

Set your observer location to see the next 7 days of passes ≥ 10°. The values pass through the URL so the page stays shareable.

No JS? Fill the form by hand. The geolocation button needs JavaScript.